K3XY-2 Weather Reports


Display with metric or nautical units.
time (UTC)temp
F
wind
direction
speed
MPH
gust
MPH
rain 1hr
in
rain 24hr
in
rain mn
in
humidity
%
barometer
mb
20260504172906 70 0 0.0 0.0 0.00 0.00 0.00 41 1011.3
20260504170905 70 0 0.0 0.0 0.00 0.00 0.00 43 1011.5
20260504150906 66 0 0.0 0.0 0.00 0.00 0.00 45 1013.1
20260504140906 0 0.0 0.0 0.00 0.00 0.00 1013.3
20260504081906 0 0.0 0.0 0.00 0.00 0.00 1013.8
20260504080905 43 0.0 0.0 0.00 0.00 0.00 1013.9
20260504045905 45 0 0.0 0.0 0.00 0.00 0.00 63 1014.2
20260504044906 45 0 0.0 0.0 0.00 0.00 0.00 63 1014.3
20260504043906 45 0 0.0 0.0 0.00 0.00 0.00 63 1014.2
20260504042905 45 0 0.0 0.0 0.00 0.00 0.00 62 1014.1
20260504041905 46 0 0.0 0.0 0.00 0.00 0.00 62 1013.9
20260504040905 46 0 0.0 0.0 0.00 0.00 0.00 62 1013.8
20260504035905 46 0 0.0 0.0 0.00 0.00 0.00 61 1013.8
20260504034905 46 0 0.0 0.0 0.00 0.00 0.00 61 1013.7
20260504033905 46 0 0.0 0.0 0.00 0.00 0.00 60 1013.7
20260504032906 47 0 0.0 0.0 0.00 0.00 0.00 59 1013.6
20260504031905 47 0 0.0 0.0 0.00 0.00 0.00 59 1013.6
20260504030905 47 0 0.0 0.0 0.00 0.00 0.00 59 1013.6
20260504025905 47 0 0.0 0.0 0.00 0.00 0.00 58 1013.6
20260504024906 47 0 0.0 0.0 0.00 0.00 0.00 58 1013.5
20260504023905 47 0 0.0 0.0 0.00 0.00 0.00 58 1013.6
20260504022905 48 0 0.0 0.0 0.00 0.00 0.00 58 1013.7
20260504021905 48 0 0.0 0.0 0.00 0.00 0.00 57 1013.7
20260504020905 48 0 0.0 0.0 0.00 0.00 0.00 57 1013.6
20260504015905 49 0 0.0 0.0 0.00 0.00 0.00 56 1013.6
20260504014905 49 0 0.0 0.0 0.00 0.00 0.00 55 1013.5
20260504013905 49 0 0.0 0.0 0.00 0.00 0.00 54 1013.4
20260504012906 50 0 0.0 0.0 0.00 0.00 0.00 54 1013.4
20260504011905 50 0 0.0 0.0 0.00 0.00 0.00 52 1013.2
20260504010905 51 0 0.0 0.0 0.00 0.00 0.00 52 1013.2
20260504005905 51 0 0.0 0.0 0.00 0.00 0.00 51 1013.1
20260504004905 52 0 0.0 0.0 0.00 0.00 0.00 50 1013.0
20260504003905 53 0 0.0 0.0 0.00 0.00 0.00 49 1012.8
20260504002905 53 0 0.0 0.0 0.00 0.00 0.00 48 1012.6
20260504001905 54 0 0.0 0.0 0.00 0.00 0.00 47 1012.4
20260504000905 54 0 0.0 0.0 0.00 0.00 0.00 47 1012.3
20260503235905 55 0 0.0 0.0 0.00 0.00 0.00 46 1012.2
20260503234905 55 0 0.0 0.0 0.00 0.00 0.00 47 1012.1
20260503233905 56 0 0.0 0.0 0.00 0.00 0.00 44 1012.0
20260503232905 56 0 0.0 0.0 0.00 0.00 0.00 43 1011.9
20260503231905 57 0 0.0 0.0 0.00 0.00 0.00 41 1011.9
20260503230905 57 0 0.0 0.0 0.00 0.00 0.00 40 1011.9
20260503225905 58 0 0.0 0.0 0.00 0.00 0.00 41 1011.7
20260503224905 58 0 0.0 0.0 0.00 0.00 0.00 41 1011.6
20260503223905 59 0 0.0 0.0 0.00 0.00 0.00 40 1011.6
20260503222905 59 0 0.0 0.0 0.00 0.00 0.00 38 1011.6
20260503221904 59 0 0.0 0.0 0.00 0.00 0.00 37 1011.6
20260503220905 59 0 0.0 0.0 0.00 0.00 0.00 40 1011.7
20260503215905 59 0 0.0 0.0 0.00 0.00 0.00 37 1011.6
20260503214905 60 0 0.0 0.0 0.00 0.00 0.00 36 1011.6
20260503213904 60 0 0.0 0.0 0.00 0.00 0.00 36 1011.6
20260503212905 60 0 0.0 0.0 0.00 0.00 0.00 37 1011.7
20260503211905 60 0 0.0 0.0 0.00 0.00 0.00 37 1011.6
20260503210906 59 0 0.0 0.0 0.00 0.00 0.00 37 1011.6
20260503205904 60 0 0.0 0.0 0.00 0.00 0.00 35 1011.5
20260503204905 60 0 0.0 0.0 0.00 0.00 0.00 38 1011.5
20260503203905 60 0 0.0 0.0 0.00 0.00 0.00 36 1011.5
20260503202905 60 0 0.0 0.0 0.00 0.00 0.00 39 1011.7
20260503201904 59 0 0.0 0.0 0.00 0.00 0.00 40 1011.8
20260503200905 59 0 0.0 0.0 0.00 0.00 0.00 37 1011.8
20260503195905 59 0 0.0 0.0 0.00 0.00 0.00 42 1012.0
20260503194905 59 0 0.0 0.0 0.00 0.00 0.00 43 1012.1
20260503193904 58 0 0.0 0.0 0.00 0.00 0.00 40 1012.2
20260503192905 59 0 0.0 0.0 0.00 0.00 0.00 38 1012.2
20260503191905 57 0 0.0 0.0 0.00 0.00 0.00 41 1012.3
20260503190905 57 0 0.0 0.0 0.00 0.00 0.00 37 1012.5
20260503185904 58 0 0.0 0.0 0.00 0.00 0.00 38 1012.9
20260503184905 58 0 0.0 0.0 0.00 0.00 0.00 39 1012.9
20260503183905 57 0 0.0 0.0 0.00 0.00 0.00 40 1013.1
20260503182904 58 0 0.0 0.0 0.00 0.00 0.00 40 1013.0
20260503181904 58 0 0.0 0.0 0.00 0.00 0.00 44 1013.0
20260503180905 57 0 0.0 0.0 0.00 0.00 0.00 41 1013.2
20260503175905 57 0 0.0 0.0 0.00 0.00 0.00 37 1013.2
20260503174904 58 0 0.0 0.0 0.00 0.00 0.00 42 1013.1
20260503173905 56 0 0.0 0.0 0.00 0.00 0.00 39 1013.2